International Virtual Aviation Organisation

Russian Federation and Kazakhstan MCD

 

Карточка аэропорта UMKK

Внимание!
Информация на этой странице в стадии наполнения.
Если вы не увидели какой-то информации, или заметили неточность - пожалуйста сообщите нам!
Спасибо!
Команда RU-STAFF
Название аэропортаХраброво
Название аэропорта (англ.)Khrabrovo
Превышение43 ft. (13.1 m.)
Координаты54°53.4', 20°35.55'
Высота перехода1000m
Эшелон переходаQFE>=742mm:FL050; QFE<742:FL060
Коды ответчика6620-6637
Зона ОрВДКалининград РПИ (UMKK)
Данные METARUMKK 302200Z VRB01MPS 9999 BKN013 07/07 Q1017 R24/290095 NOSIG RMK QFE761/1015
Проноз погоды (TAF)UMKK 301957Z 3021/3121 VRB01MPS 3100 BR FEW006 BKN011 TEMPO 3021/3023 -SHRA BR BKN005 SCT016CB TEMPO 3023/3108 0300 FG BKN002 BECMG 3108/3110 6000 NSW FEW009 BKN016
NOTAMshow/hide NOTAM
AWOS   TABLE

Информация о ВПП

ВПП Длина ВПП (м.) Покрытие Курс ВПП Частота ILS
063350Асфальтобетон60110.3
243350Асфальтобетон240109.5

Диспетчерские позиции

Позывной Наименование органа УВД Частота
UMKK_APPКалининград-Подход126.0
UMKK_TWRКалининград-Вышка127.2



Спутниковое изображение